Wind_Speed
11 10 10 9 7 5 4 2 1 2 4 6 6 7 6 7 8 9 9 8 7 8 8 8 8 8 9 9 10 10 10 11 11 11 12 13 14 14 14 14 15 15 15 15 16 15 15 15 15
13 12 11 9 8 6 3 2 4 5 5 6 8 8 8 8 8 9 9 9 9 9 9 9 10 10 10 10 11 11 11 12 13 13 13 14 14 14 15 15 15 16 16 16 16 16 16 16 16
13 13 12 10 9 6 4 4 6 7 6 8 9 9 9 9 9 9 9 9 10 9 10 10 10 11 11 11 12 13 13 13 14 15 15 15 15 15 15 16 16 17 17 17 17 17 17 17 17
13 13 12 11 9 7 5 5 6 7 8 10 11 11 11 11 12 11 11 11 11 11 11 12 12 12 12 12 13 14 14 15 15 16 16 16 16 16 16 17 17 17 18 18 18 19 18 18 18
13 12 12 11 9 8 6 7 8 8 10 12 13 14 14 14 14 14 13 12 13 12 12 13 13 13 13 14 14 15 16 16 17 17 17 18 18 18 18 18 18 18 18 18 19 20 19 19 19
12 13 13 12 10 9 7 8 10 10 11 13 14 14 14 15 15 14 14 14 14 13 14 14 15 15 15 15 16 16 17 18 18 19 19 19 19 19 19 19 19 19 19 19 20 20 20 20 20
11 12 13 11 10 9 9 9 10 11 13 15 17 16 16 16 16 16 16 15 15 16 15 15 16 17 17 17 17 18 18 18 19 19 19 20 20 20 20 20 20 21 21 21 21 21 21 21 20
11 11 11 12 11 9 9 10 11 13 15 17 17 17 18 18 18 17 16 16 17 18 17 17 17 18 18 18 19 19 20 20 20 20 20 21 21 21 21 21 22 22 22 22 22 23 22 22 22
11 11 11 11 11 9 10 11 13 15 17 18 19 19 19 19 18 18 18 18 18 18 17 18 18 19 20 20 20 20 20 20 20 21 21 22 23 23 22 22 22 22 22 23 23 23 23 23 22
12 12 11 11 11 11 11 13 14 15 17 19 19 18 19 19 19 19 19 18 18 19 19 20 20 20 21 21 21 21 21 21 21 22 22 23 23 24 23 23 23 24 24 23 23 23 24 23 23
12 11 11 11 10 11 11 13 14 16 18 19 20 18 18 18 18 19 20 19 19 19 20 21 21 21 21 22 22 23 23 22 22 23 23 23 24 24 24 24 24 23 23 23 24 24 24 24 24
12 11 10 10 10 11 12 13 14 16 18 20 19 18 18 17 18 20 21 21 20 20 21 22 22 23 24 24 24 25 24 25 25 24 23 23 24 25 25 25 24 24 24 24 24 25 25 25 24
10 10 9 9 11 12 13 13 14 16 18 19 18 18 18 19 20 20 21 21 21 21 23 24 24 24 25 26 26 26 26 26 25 24 24 24 24 24 25 25 24 24 24 24 24 25 26 26 25
10 9 9 9 11 12 14 14 16 17 17 18 18 18 20 22 22 21 21 22 21 22 23 25 26 26 26 27 27 27 27 26 26 26 25 26 25 25 25 25 24 24 25 25 25 26 26 26 26
10 10 10 9 10 11 14 15 16 16 17 18 19 20 21 22 22 23 23 22 22 23 24 26 27 27 27 27 27 28 28 27 27 27 27 27 26 26 25 25 24 24 24 25 25 25 26 26 26
11 10 11 10 12 12 14 16 16 17 16 18 20 19 20 21 22 23 24 22 22 23 24 25 26 27 27 27 27 28 29 29 28 28 28 27 27 26 25 25 25 25 25 25 25 25 26 26 26
10 10 12 12 14 14 15 17 17 18 19 19 20 20 20 20 22 23 24 24 23 24 24 26 27 28 27 26 26 28 28 28 29 28 27 27 26 25 24 25 25 25 25 26 26 26 26 26 27
9 10 10 11 13 15 16 18 18 19 20 21 21 21 20 20 21 23 24 25 25 25 25 27 27 27 27 28 27 28 28 28 28 28 27 27 26 24 24 25 25 26 26 27 26 26 27 26 26
9 10 11 12 14 16 17 17 19 19 19 20 21 21 21 21 22 23 24 26 26 26 27 27 27 27 29 28 28 28 28 28 28 27 27 26 26 25 25 25 25 26 27 27 27 27 27 26 26
11 12 12 12 13 16 17 17 19 20 19 19 19 20 20 20 21 22 22 24 25 27 27 27 27 27 27 28 28 28 28 27 26 26 25 25 25 25 24 25 25 26 26 27 27 27 27 27 27
11 13 13 13 13 15 17 17 17 18 18 18 18 19 20 20 21 22 23 25 25 26 27 27 25 26 26 27 26 27 26 25 24 24 25 25 25 24 24 25 25 26 27 27 26 26 26 26 26
11 13 14 15 14 15 16 17 17 19 19 19 19 20 21 21 22 24 25 25 27 27 26 25 24 24 25 26 25 25 24 24 24 25 26 26 25 25 25 24 25 25 26 25 25 25 26 25 25
12 13 14 14 15 16 17 18 19 19 20 20 20 20 21 22 23 25 25 25 26 26 25 24 24 23 24 24 24 24 23 23 24 24 25 24 24 24 24 24 24 25 25 25 24 24 25 24 25
14 15 16 16 16 15 16 17 18 18 20 20 20 21 21 21 23 23 24 25 25 26 26 26 25 24 23 23 23 22 21 22 22 22 23 23 23 23 24 24 24 24 24 24 24 24 24 24 25
15 15 16 16 15 15 15 17 17 17 18 19 19 20 21 22 23 22 23 24 24 24 24 25 24 24 23 23 22 21 21 21 21 21 22 22 22 22 22 23 23 23 24 24 24 24 23 24 25
14 16 16 17 16 15 15 17 17 17 18 18 18 20 21 21 22 24 24 23 22 22 23 23 24 24 23 22 22 22 21 21 22 21 21 22 22 23 22 22 22 22 23 23 24 23 23 23 24
15 15 16 16 15 16 16 16 17 17 18 19 19 20 21 22 23 23 22 22 22 23 23 23 24 24 23 23 23 23 21 21 21 22 22 22 22 22 21 22 22 22 23 23 23 23 23 24 24
14 16 17 17 17 18 18 18 19 18 18 19 19 19 20 22 23 23 23 23 23 23 24 24 24 23 23 23 24 23 21 22 22 21 20 20 21 21 21 21 22 22 22 22 22 23 23 24 25
14 15 17 18 19 19 20 20 20 19 20 20 21 21 20 21 21 22 23 25 25 24 24 24 24 23 22 22 23 21 21 20 20 19 19 19 20 20 20 21 21 21 21 21 22 22 23 24 24
15 16 17 19 19 19 21 22 21 20 21 22 22 22 23 22 22 23 23 23 24 24 25 24 23 22 22 22 21 20 20 19 19 18 19 20 20 20 20 20 20 20 21 21 22 23 23 23 24
Wind_Direction
204 199 194 191 185 183 182 179 198 264 290 304 311 311 316 320 317 313 311 306 310 316 318 319 315 314 314 314 312 312 310 310 309 308 308 307 306 303 301 300 299 299 299 297 297 296 293 291 288
206 204 201 196 188 181 192 208 254 279 298 303 302 301 307 309 307 309 307 300 302 308 311 314 314 312 311 312 312 310 310 309 308 306 306 305 303 301 298 297 295 295 295 295 295 295 293 290 288
208 207 208 203 194 195 210 252 273 297 302 298 295 293 301 304 305 307 307 300 300 304 306 310 311 308 306 307 309 307 306 307 306 305 304 304 302 299 298 296 294 292 292 293 292 292 290 289 287
207 207 208 208 205 211 224 249 274 291 290 293 292 296 299 298 302 305 305 299 300 302 303 305 306 304 303 303 303 303 302 304 304 303 301 300 299 297 296 295 293 292 291 290 289 288 287 286 285
204 206 208 206 208 217 232 258 269 282 289 290 292 294 296 299 300 299 302 298 298 298 300 302 302 302 300 300 300 302 301 302 302 303 301 299 297 295 294 293 292 291 290 288 286 285 283 283 282
202 206 209 207 210 219 231 253 271 281 293 294 294 294 292 294 296 294 295 295 295 295 295 297 297 297 297 296 297 298 299 300 300 300 301 299 298 295 293 292 291 290 289 287 285 283 281 281 280
201 211 215 212 214 222 240 253 269 280 296 298 297 298 296 293 293 294 294 294 295 297 296 295 295 294 294 294 295 296 297 296 297 298 300 300 299 297 295 292 291 290 290 288 285 281 280 279 279
201 214 214 214 218 230 245 261 274 284 290 295 296 298 297 298 296 295 296 297 296 295 295 296 296 295 294 293 293 294 295 294 295 297 297 297 296 295 293 293 292 291 290 289 287 283 282 279 277
200 208 215 220 228 241 252 266 272 281 286 291 293 296 297 298 297 296 295 293 292 294 294 293 294 293 293 294 293 293 295 295 294 294 295 294 293 292 292 292 291 289 289 288 287 286 281 278 276
205 213 218 229 241 252 258 265 273 279 286 288 291 294 295 295 295 296 295 291 291 293 293 290 290 291 290 291 290 291 293 295 295 294 295 294 293 291 290 290 289 287 286 286 286 286 282 278 275
210 218 223 232 242 253 264 269 273 280 290 293 293 296 293 292 292 295 295 293 289 290 291 292 289 291 292 291 290 292 293 294 295 297 294 295 294 291 290 289 287 286 285 284 283 283 282 278 276
213 218 226 238 246 258 267 274 279 285 294 297 297 296 295 296 295 296 298 296 291 289 290 290 289 290 291 290 290 292 294 294 295 296 295 296 298 294 290 290 286 284 283 283 282 281 280 279 277
220 225 234 252 256 265 269 275 280 285 290 293 295 296 298 299 299 297 296 295 293 291 292 290 289 290 290 290 290 292 293 293 294 295 295 295 296 294 292 290 288 285 284 283 283 281 279 278 277
224 227 241 260 265 271 271 278 286 287 287 289 292 293 296 296 297 298 296 295 293 293 292 291 291 291 291 291 292 291 290 291 292 294 295 296 296 294 293 289 287 286 287 285 285 282 278 277 276
222 225 232 249 259 272 276 280 286 290 291 292 294 293 294 294 295 298 297 294 294 293 294 295 296 294 292 291 291 290 290 291 291 293 294 296 295 294 292 289 288 287 288 289 285 283 279 277 276
229 233 234 245 255 264 273 281 285 288 287 291 294 294 297 298 298 299 299 299 299 297 296 296 295 294 291 289 288 289 290 290 292 293 293 294 294 292 290 289 289 290 290 290 288 285 282 279 277
241 245 246 246 254 264 272 281 286 288 289 291 293 297 299 300 303 303 302 302 302 299 296 295 294 293 289 286 285 287 289 290 292 293 293 294 294 290 289 289 289 290 291 292 290 287 283 282 278
249 255 258 259 260 265 270 277 282 284 287 290 292 295 299 300 302 303 304 304 303 300 297 296 295 294 294 291 289 287 288 290 291 293 294 293 292 289 289 290 289 290 291 291 290 287 285 283 280
262 268 270 272 271 271 272 276 280 283 288 291 291 291 296 301 303 305 304 304 304 302 300 296 295 294 296 292 292 289 287 288 290 292 293 292 293 292 291 292 291 290 290 290 289 287 285 283 279
274 276 276 277 275 276 277 278 280 283 287 287 286 288 293 299 304 305 304 304 304 303 301 299 296 294 294 294 294 292 291 289 288 290 291 292 293 293 292 294 292 291 290 290 289 288 285 283 280
281 278 279 284 282 276 277 278 278 283 285 284 286 289 294 297 300 304 307 308 306 305 302 301 300 299 297 299 299 296 293 294 292 291 292 291 292 292 292 293 293 293 293 291 289 289 287 283 280
287 284 283 286 287 283 283 282 279 282 283 285 289 293 295 297 300 304 305 305 306 305 305 305 304 301 300 303 302 299 297 297 296 294 291 290 290 292 293 294 294 294 295 294 292 291 289 284 281
292 287 287 286 288 285 282 284 287 287 288 290 290 293 296 296 297 302 302 302 304 306 308 309 309 306 305 304 304 304 300 298 297 295 295 291 291 293 292 294 294 295 294 295 294 292 290 285 282
301 297 293 290 290 286 287 289 293 292 295 295 295 296 298 296 296 297 301 302 304 306 308 310 309 310 310 306 306 305 302 301 298 296 297 296 295 295 294 294 296 296 294 295 294 294 291 287 284
303 302 302 298 295 291 293 295 300 301 305 303 301 301 301 300 302 301 301 303 304 306 308 310 309 310 311 308 307 307 303 301 301 301 302 303 301 300 300 300 301 300 299 299 299 296 293 291 287
310 308 309 311 309 304 299 300 303 306 307 306 306 304 301 299 300 302 302 302 303 304 307 307 306 307 307 306 305 306 304 305 304 304 304 303 303 303 304 305 304 303 302 302 301 298 296 294 290
318 316 319 318 316 312 307 305 308 309 304 305 306 305 302 302 303 305 304 302 302 305 306 304 304 305 304 303 304 304 304 306 306 306 306 304 304 305 306 305 305 305 305 305 303 300 297 295 293
319 321 320 319 319 317 318 315 315 312 312 308 304 302 303 306 305 306 303 304 305 306 305 303 302 303 302 302 303 303 302 305 307 308 309 310 309 308 308 307 306 306 307 306 304 301 299 297 295
320 321 319 320 322 321 319 322 321 314 314 309 308 307 308 311 308 307 306 304 304 305 304 303 301 300 301 302 304 304 305 308 309 309 310 312 312 312 312 311 310 309 310 309 307 304 301 299 296
316 318 319 319 320 319 319 321 324 320 316 313 311 310 310 309 310 309 308 307 306 306 305 303 300 300 300 301 303 305 305 308 311 311 311 312 313 313 314 314 313 313 312 312 310 308 304 300 298
Height
5895 5897 5898 5900 5902 5902 5902 5903 5902 5902 5903 5903 5903 5903 5903 5903 5904 5905 5902 5899 5899 5898 5898 5897 5896 5896 5895 5894 5893 5892 5891 5890 5889 5888 5886 5885 5884 5882 5881 5879 5878 5877 5875 5874 5873 5872 5871 5870 5869
5893 5895 5897 5899 5900 5900 5901 5901 5901 5901 5902 5902 5902 5902 5902 5902 5902 5901 5900 5898 5897 5897 5896 5896 5895 5894 5894 5893 5892 5891 5889 5888 5887 5886 5884 5883 5882 5880 5879 5877 5876 5874 5873 5872 5871 5869 5868 5867 5867
5891 5893 5896 5897 5898 5900 5900 5900 5900 5900 5901 5901 5900 5900 5901 5901 5900 5900 5899 5897 5896 5896 5895 5894 5893 5893 5892 5891 5890 5889 5887 5886 5885 5884 5882 5881 5879 5878 5876 5875 5873 5872 5871 5869 5868 5867 5866 5864 5863
5890 5892 5894 5896 5897 5898 5898 5898 5898 5899 5899 5899 5899 5898 5899 5899 5899 5898 5897 5895 5894 5894 5893 5892 5891 5891 5890 5889 5888 5886 5885 5884 5882 5881 5879 5878 5877 5875 5873 5872 5870 5869 5868 5866 5865 5864 5863 5861 5860
5888 5890 5892 5893 5895 5896 5896 5896 5897 5898 5898 5898 5898 5897 5897 5897 5897 5896 5895 5893 5892 5892 5891 5890 5889 5888 5887 5886 5885 5884 5882 5881 5879 5878 5876 5875 5873 5872 5870 5868 5867 5866 5864 5863 5861 5860 5859 5858 5857
5887 5888 5890 5891 5893 5894 5895 5895 5895 5895 5895 5895 5896 5895 5894 5895 5894 5893 5892 5891 5890 5889 5888 5887 5886 5885 5884 5883 5882 5880 5879 5877 5876 5874 5873 5871 5870 5868 5866 5865 5863 5862 5860 5859 5857 5856 5855 5854 5853
5886 5887 5888 5889 5891 5892 5892 5892 5893 5893 5892 5893 5893 5892 5891 5891 5891 5890 5890 5889 5887 5886 5885 5884 5884 5882 5881 5880 5878 5877 5875 5874 5872 5871 5869 5867 5866 5864 5862 5860 5859 5857 5856 5855 5853 5852 5850 5849 5848
5884 5886 5886 5888 5889 5890 5891 5890 5891 5891 5890 5890 5890 5889 5889 5889 5888 5886 5886 5886 5885 5884 5882 5881 5880 5879 5878 5876 5875 5873 5872 5870 5868 5867 5865 5863 5861 5860 5858 5856 5854 5853 5851 5850 5848 5847 5845 5845 5844
5882 5885 5885 5886 5888 5888 5888 5888 5888 5888 5888 5888 5888 5887 5886 5886 5885 5884 5884 5883 5882 5881 5879 5878 5877 5876 5874 5873 5871 5869 5867 5866 5864 5862 5860 5858 5857 5855 5853 5851 5849 5848 5846 5845 5843 5842 5840 5839 5838
5881 5882 5884 5885 5886 5886 5886 5886 5887 5886 5886 5885 5885 5885 5883 5883 5882 5881 5880 5879 5878 5877 5876 5875 5873 5872 5870 5869 5866 5864 5863 5861 5859 5857 5855 5853 5851 5850 5848 5846 5844 5842 5841 5839 5838 5836 5835 5834 5833
5879 5881 5882 5883 5883 5884 5884 5884 5884 5884 5884 5883 5882 5882 5881 5880 5879 5878 5876 5875 5874 5873 5872 5871 5870 5868 5866 5864 5862 5860 5859 5857 5855 5852 5850 5848 5846 5844 5842 5841 5839 5837 5835 5834 5832 5831 5830 5829 5827
5878 5879 5880 5880 5881 5881 5881 5881 5881 5881 5881 5880 5879 5878 5877 5877 5876 5874 5873 5872 5870 5869 5868 5867 5866 5864 5862 5860 5857 5855 5854 5852 5849 5847 5845 5843 5841 5839 5837 5836 5833 5831 5830 5828 5826 5825 5824 5823 5822
5876 5878 5879 5878 5879 5879 5879 5879 5879 5878 5877 5876 5875 5875 5874 5873 5872 5871 5870 5869 5867 5865 5863 5862 5861 5859 5857 5855 5853 5850 5849 5846 5844 5842 5840 5838 5836 5834 5832 5830 5828 5826 5824 5822 5821 5819 5818 5817 5816
5875 5876 5876 5877 5877 5876 5876 5876 5876 5875 5874 5873 5872 5871 5871 5870 5869 5867 5866 5864 5863 5861 5859 5857 5855 5853 5851 5849 5847 5845 5843 5841 5839 5837 5835 5832 5830 5828 5826 5824 5822 5820 5818 5816 5815 5813 5812 5811 5810
5873 5873 5874 5875 5874 5874 5874 5873 5873 5872 5871 5870 5868 5867 5867 5866 5865 5863 5861 5859 5858 5856 5854 5852 5849 5847 5845 5843 5841 5839 5837 5835 5833 5830 5828 5826 5824 5822 5820 5818 5816 5814 5812 5810 5808 5807 5805 5804 5803
5871 5872 5873 5873 5871 5871 5871 5870 5870 5868 5867 5866 5864 5862 5862 5861 5860 5858 5856 5854 5852 5851 5848 5846 5844 5841 5839 5837 5835 5832 5830 5827 5826 5824 5822 5819 5817 5815 5813 5811 5809 5807 5805 5804 5802 5800 5799 5797 5796
5869 5869 5869 5870 5868 5867 5867 5866 5866 5864 5862 5861 5860 5858 5857 5856 5855 5853 5851 5849 5847 5845 5843 5841 5838 5835 5832 5829 5827 5825 5822 5820 5819 5817 5814 5812 5810 5808 5806 5804 5803 5801 5799 5797 5795 5793 5792 5790 5788
5867 5867 5867 5866 5865 5865 5864 5863 5862 5861 5859 5857 5856 5853 5852 5852 5850 5848 5846 5844 5842 5839 5837 5834 5831 5829 5825 5822 5819 5818 5816 5814 5812 5810 5808 5806 5803 5801 5800 5798 5796 5794 5792 5790 5788 5786 5784 5783 5781
5864 5864 5863 5863 5862 5861 5861 5860 5858 5857 5855 5854 5852 5850 5848 5847 5846 5844 5841 5839 5837 5834 5831 5828 5826 5823 5820 5817 5813 5811 5809 5807 5805 5803 5801 5799 5797 5795 5793 5791 5788 5786 5784 5782 5780 5778 5777 5775 5774
5861 5860 5860 5859 5859 5857 5856 5855 5854 5852 5851 5849 5847 5846 5845 5843 5841 5839 5837 5834 5831 5828 5825 5822 5820 5817 5814 5811 5808 5806 5803 5800 5799 5797 5795 5793 5791 5788 5786 5784 5782 5780 5777 5775 5773 5771 5769 5768 5766
5859 5857 5856 5856 5855 5853 5852 5851 5850 5848 5846 5845 5843 5842 5840 5838 5836 5834 5832 5829 5826 5823 5820 5816 5813 5810 5807 5804 5802 5799 5797 5794 5792 5790 5788 5786 5784 5782 5779 5777 5775 5772 5770 5768 5765 5763 5762 5760 5758
5856 5854 5853 5852 5851 5849 5848 5846 5845 5843 5842 5840 5839 5837 5835 5833 5831 5829 5826 5824 5820 5817 5813 5809 5806 5804 5801 5798 5796 5793 5791 5789 5786 5784 5782 5780 5777 5775 5773 5770 5768 5765 5763 5760 5758 5755 5754 5752 5750
5852 5850 5849 5848 5847 5845 5843 5841 5841 5838 5837 5836 5834 5833 5831 5829 5827 5824 5821 5818 5815 5811 5807 5804 5802 5799 5796 5793 5790 5787 5785 5783 5780 5778 5776 5773 5771 5769 5766 5763 5760 5758 5756 5753 5751 5748 5746 5744 5742
5848 5847 5846 5845 5843 5841 5839 5838 5836 5834 5833 5831 5829 5828 5825 5823 5821 5818 5815 5812 5809 5806 5803 5799 5797 5794 5791 5788 5785 5782 5780 5777 5775 5773 5770 5768 5765 5762 5759 5756 5753 5751 5749 5746 5744 5741 5738 5736 5734
5846 5844 5843 5841 5839 5837 5836 5833 5832 5829 5828 5826 5824 5822 5820 5818 5815 5813 5810 5807 5804 5801 5798 5794 5791 5788 5785 5783 5780 5777 5775 5772 5769 5767 5765 5762 5759 5756 5753 5750 5747 5744 5741 5739 5737 5734 5731 5729 5727
5842 5841 5839 5837 5835 5833 5832 5829 5828 5825 5823 5821 5819 5817 5815 5813 5810 5808 5805 5802 5799 5796 5792 5790 5787 5783 5781 5777 5775 5772 5769 5767 5764 5762 5759 5757 5754 5750 5747 5744 5741 5738 5735 5732 5729 5727 5725 5722 5720
5839 5837 5836 5833 5831 5829 5828 5826 5823 5821 5819 5817 5815 5813 5810 5808 5805 5802 5799 5796 5793 5790 5787 5784 5781 5778 5775 5772 5769 5767 5764 5761 5759 5756 5754 5751 5748 5745 5741 5738 5735 5732 5729 5726 5723 5720 5718 5716 5713
5836 5834 5833 5830 5828 5825 5824 5822 5820 5816 5815 5812 5810 5808 5806 5803 5800 5797 5793 5790 5787 5783 5781 5778 5775 5772 5770 5767 5764 5761 5759 5756 5754 5751 5749 5746 5742 5739 5736 5732 5729 5726 5723 5720 5717 5714 5711 5709 5706
5833 5831 5829 5827 5825 5823 5820 5820 5816 5812 5810 5807 5805 5802 5799 5796 5793 5790 5787 5784 5781 5778 5775 5772 5769 5766 5763 5761 5759 5756 5754 5751 5748 5746 5744 5741 5737 5734 5730 5727 5724 5720 5717 5714 5710 5707 5704 5701 5698
5831 5829 5827 5825 5822 5819 5816 5817 5811 5807 5804 5802 5799 5796 5793 5790 5787 5784 5781 5778 5774 5771 5769 5766 5763 5760 5758 5756 5754 5751 5749 5746 5744 5741 5739 5736 5732 5729 5725 5722 5719 5715 5712 5708 5704 5701 5697 5694 5691